Time,TemperatureF,DewpointF,PressureIn,WindDirection,WindDirectionDegrees,WindSpeedMPH,WindSpeedGustMPH,Humidity,HourlyPrecipIn,Conditions,Clouds,dailyrainin,SoftwareType,DateUTC
2013-01-27 00:02:00,24.6,22.9,30.44,SE,141,0.0,0.0,93,0.00,,CLR,0.00,VWS V14.01,2013-01-27 05:02:00,
2013-01-27 00:07:00,24.5,22.8,30.44,SE,141,0.0,0.0,93,0.00,,CLR,0.00,VWS V14.01,2013-01-27 05:07:00,
2013-01-27 00:13:00,24.3,22.6,30.44,SE,141,0.0,0.0,93,0.00,,CLR,0.00,VWS V14.01,2013-01-27 05:13:00,
2013-01-27 00:14:00,24.3,22.6,30.45,SE,141,0.0,0.0,93,0.00,,CLR,0.00,VWS V14.01,2013-01-27 05:14:00,
2013-01-27 00:20:00,24.3,22.6,30.45,SE,141,0.0,0.0,93,0.00,,CLR,0.00,VWS V14.01,2013-01-27 05:20:00,
2013-01-27 00:26:00,24.1,22.4,30.45,SE,141,0.0,0.0,93,0.00,,CLR,0.00,VWS V14.01,2013-01-27 05:26:00,
2013-01-27 00:31:00,24.0,22.3,30.46,SE,141,0.0,0.0,93,0.00,,CLR,0.00,VWS V14.01,2013-01-27 05:31:00,
2013-01-27 00:37:00,23.9,22.2,30.46,SE,141,0.0,0.0,93,0.00,,CLR,0.00,VWS V14.01,2013-01-27 05:37:00,
2013-01-27 00:42:00,23.8,22.1,30.46,SE,141,0.0,0.0,93,0.00,,CLR,0.00,VWS V14.01,2013-01-27 05:42:00,
2013-01-27 00:48:00,23.8,22.1,30.45,SE,141,0.0,0.0,93,0.00,,CLR,0.00,VWS V14.01,2013-01-27 05:48:00,
2013-01-27 00:53:00,23.8,22.1,30.45,SE,141,0.0,0.0,93,0.00,,CLR,0.00,VWS V14.01,2013-01-27 05:53:00,
2013-01-27 00:58:00,23.7,22.0,30.45,SE,141,0.0,0.0,93,0.00,,CLR,0.00,VWS V14.01,2013-01-27 05:58:00,
2013-01-27 01:03:00,23.5,21.8,30.45,SE,141,0.0,0.0,93,0.00,,CLR,0.00,VWS V14.01,2013-01-27 06:03:00,
2013-01-27 01:09:00,23.4,21.7,30.46,SE,141,0.0,0.0,93,0.00,,CLR,0.00,VWS V14.01,2013-01-27 06:09:00,
2013-01-27 01:15:00,23.4,21.7,30.46,SE,141,0.0,0.0,93,0.00,,CLR,0.00,VWS V14.01,2013-01-27 06:15:00,
2013-01-27 01:20:00,23.2,21.5,30.47,SE,141,0.0,0.0,93,0.00,,CLR,0.00,VWS V14.01,2013-01-27 06:20:00,
2013-01-27 01:26:00,23.1,21.4,30.47,SE,141,0.0,0.0,93,0.00,,CLR,0.00,VWS V14.01,2013-01-27 06:26:00,
2013-01-27 01:31:00,23.1,21.4,30.47,SE,141,0.0,0.0,93,0.00,,CLR,0.00,VWS V14.01,2013-01-27 06:31:00,
2013-01-27 01:36:00,22.9,21.2,30.47,SE,141,0.0,0.0,93,0.00,,CLR,0.00,VWS V14.01,2013-01-27 06:36:00,
2013-01-27 01:41:00,22.7,21.0,30.48,SE,141,0.0,0.0,93,0.00,,CLR,0.00,VWS V14.01,2013-01-27 06:41:00,
2013-01-27 01:47:00,22.7,21.0,30.48,SE,141,0.0,0.0,93,0.00,,CLR,0.00,VWS V14.01,2013-01-27 06:47:00,
2013-01-27 01:52:00,22.7,21.0,30.48,SE,141,0.0,0.0,93,0.00,,CLR,0.00,VWS V14.01,2013-01-27 06:52:00,
2013-01-27 01:57:00,22.6,20.9,30.49,SE,141,0.0,0.0,93,0.00,,CLR,0.00,VWS V14.01,2013-01-27 06:57:00,
2013-01-27 02:02:00,22.6,20.9,30.49,SE,141,0.0,0.0,93,0.00,,CLR,0.00,VWS V14.01,2013-01-27 07:02:00,
2013-01-27 02:08:00,22.6,20.9,30.49,SE,141,0.0,0.0,93,0.00,,CLR,0.00,VWS V14.01,2013-01-27 07:08:00,
2013-01-27 02:13:00,22.5,20.8,30.49,SE,141,0.0,0.0,93,0.00,,CLR,0.00,VWS V14.01,2013-01-27 07:13:00,
2013-01-27 02:19:00,22.4,20.7,30.49,SE,141,0.0,0.0,93,0.00,,CLR,0.00,VWS V14.01,2013-01-27 07:19:00,
2013-01-27 02:24:00,22.2,20.5,30.49,SE,141,0.0,0.0,93,0.00,,CLR,0.00,VWS V14.01,2013-01-27 07:24:00,
2013-01-27 02:30:00,22.1,20.4,30.50,SE,141,0.0,0.0,93,0.00,,CLR,0.00,VWS V14.01,2013-01-27 07:30:00,
2013-01-27 02:35:00,22.0,20.3,30.50,SE,141,0.0,0.0,93,0.00,,CLR,0.00,VWS V14.01,2013-01-27 07:35:00,
2013-01-27 02:40:00,22.0,20.3,30.50,SE,141,0.0,0.0,93,0.00,,CLR,0.00,VWS V14.01,2013-01-27 07:40:00,
2013-01-27 02:46:00,21.9,20.2,30.50,SE,141,0.0,0.0,93,0.00,,CLR,0.00,VWS V14.01,2013-01-27 07:46:00,
2013-01-27 02:51:00,21.7,20.0,30.50,SE,141,0.0,0.0,93,0.00,,CLR,0.00,VWS V14.01,2013-01-27 07:51:00,
2013-01-27 02:56:00,21.6,19.9,30.50,SE,141,0.0,0.0,93,0.00,,CLR,0.00,VWS V14.01,2013-01-27 07:56:00,
2013-01-27 03:02:00,21.6,19.9,30.51,SE,141,0.0,0.0,93,0.00,,CLR,0.00,VWS V14.01,2013-01-27 08:02:00,
2013-01-27 03:07:00,21.6,19.9,30.51,SE,141,0.0,0.0,93,0.00,,CLR,0.00,VWS V14.01,2013-01-27 08:07:00,
2013-01-27 03:13:00,21.5,19.8,30.51,SE,141,0.0,0.0,93,0.00,,CLR,0.00,VWS V14.01,2013-01-27 08:13:00,
2013-01-27 03:18:00,21.3,19.6,30.51,SE,141,0.0,0.0,93,0.00,,CLR,0.00,VWS V14.01,2013-01-27 08:18:00,
2013-01-27 03:23:00,21.2,19.5,30.52,SE,141,0.0,0.0,93,0.00,,CLR,0.00,VWS V14.01,2013-01-27 08:23:00,
2013-01-27 03:29:00,21.3,19.6,30.51,SE,139,0.0,0.0,93,0.00,,CLR,0.00,VWS V14.01,2013-01-27 08:29:00,
2013-01-27 03:35:00,21.3,19.6,30.51,SE,139,0.0,0.0,93,0.00,,CLR,0.00,VWS V14.01,2013-01-27 08:35:00,
2013-01-27 03:40:00,21.2,19.5,30.51,SE,139,0.0,0.0,93,0.00,,CLR,0.00,VWS V14.01,2013-01-27 08:40:00,
2013-01-27 03:46:00,21.1,19.4,30.51,SE,140,0.0,0.0,93,0.00,,CLR,0.00,VWS V14.01,2013-01-27 08:46:00,
2013-01-27 03:51:00,21.1,19.4,30.51,SE,139,0.0,0.0,93,0.00,,CLR,0.00,VWS V14.01,2013-01-27 08:51:00,
2013-01-27 03:56:00,20.9,19.2,30.51,SE,139,0.0,0.0,93,0.00,,CLR,0.00,VWS V14.01,2013-01-27 08:56:00,
2013-01-27 04:02:00,20.8,19.1,30.51,SE,139,0.0,0.0,93,0.00,,CLR,0.00,VWS V14.01,2013-01-27 09:02:00,
2013-01-27 04:07:00,20.7,19.0,30.51,SE,139,0.0,0.0,93,0.00,,CLR,0.00,VWS V14.01,2013-01-27 09:07:00,
2013-01-27 04:12:00,20.6,18.9,30.51,SE,139,0.0,0.0,93,0.00,,CLR,0.00,VWS V14.01,2013-01-27 09:12:00,
2013-01-27 04:17:00,20.6,18.9,30.51,SE,139,0.0,0.0,93,0.00,,CLR,0.00,VWS V14.01,2013-01-27 09:17:00,
2013-01-27 04:22:00,20.5,18.8,30.50,SE,139,0.0,0.0,93,0.00,,CLR,0.00,VWS V14.01,2013-01-27 09:22:00,
2013-01-27 04:27:00,20.5,18.8,30.50,SE,139,0.0,0.0,93,0.00,,CLR,0.00,VWS V14.01,2013-01-27 09:27:00,
2013-01-27 04:35:00,20.5,18.8,30.51,SE,139,0.0,0.0,93,0.00,,CLR,0.00,VWS V14.01,2013-01-27 09:35:00,
2013-01-27 04:40:00,20.3,18.6,30.51,SE,139,0.0,0.0,93,0.00,,CLR,0.00,VWS V14.01,2013-01-27 09:40:00,
2013-01-27 04:46:00,20.2,18.5,30.51,SE,139,0.0,0.0,93,0.00,,CLR,0.00,VWS V14.01,2013-01-27 09:46:00,
2013-01-27 04:52:00,20.0,18.3,30.51,SE,140,0.0,0.0,93,0.00,,CLR,0.00,VWS V14.01,2013-01-27 09:52:00,
2013-01-27 04:57:00,20.0,18.3,30.52,SE,140,0.0,0.0,93,0.00,,CLR,0.00,VWS V14.01,2013-01-27 09:57:00,
2013-01-27 05:03:00,19.9,18.2,30.52,SE,139,0.0,0.0,93,0.00,,CLR,0.00,VWS V14.01,2013-01-27 10:03:00,
2013-01-27 05:08:00,19.8,18.1,30.52,SE,140,0.0,0.0,93,0.00,,CLR,0.00,VWS V14.01,2013-01-27 10:08:00,
2013-01-27 05:13:00,19.7,18.0,30.52,SE,139,0.0,0.0,93,0.00,,CLR,0.00,VWS V14.01,2013-01-27 10:13:00,
2013-01-27 05:20:00,19.6,17.9,30.53,SE,139,0.0,0.0,93,0.00,,CLR,0.00,VWS V14.01,2013-01-27 10:20:00,
2013-01-27 05:25:00,19.5,17.8,30.53,SE,139,0.0,0.0,93,0.00,,CLR,0.00,VWS V14.01,2013-01-27 10:25:00,
2013-01-27 05:30:00,19.6,17.9,30.53,SE,139,0.0,0.0,93,0.00,,CLR,0.00,VWS V14.01,2013-01-27 10:30:00,
2013-01-27 05:35:00,19.5,17.8,30.53,SE,139,0.0,0.0,93,0.00,,CLR,0.00,VWS V14.01,2013-01-27 10:35:00,
2013-01-27 05:40:00,19.4,17.7,30.53,SE,139,0.0,0.0,93,0.00,,CLR,0.00,VWS V14.01,2013-01-27 10:40:00,
2013-01-27 05:45:00,19.2,17.5,30.53,SE,139,0.0,0.0,93,0.00,,CLR,0.00,VWS V14.01,2013-01-27 10:45:00,
2013-01-27 05:51:00,19.1,17.2,30.53,SE,139,0.0,0.0,92,0.00,,CLR,0.00,VWS V14.01,2013-01-27 10:51:00,
2013-01-27 05:56:00,19.1,17.2,30.53,SE,139,0.0,0.0,92,0.00,,CLR,0.00,VWS V14.01,2013-01-27 10:56:00,
2013-01-27 06:02:00,19.0,17.1,30.54,SE,139,0.0,0.0,92,0.00,,CLR,0.00,VWS V14.01,2013-01-27 11:02:00,
2013-01-27 06:07:00,19.0,17.1,30.54,SE,140,0.0,0.0,92,0.00,,CLR,0.00,VWS V14.01,2013-01-27 11:07:00,
2013-01-27 06:13:00,18.9,17.0,30.55,SE,140,0.0,0.0,92,0.00,,CLR,0.00,VWS V14.01,2013-01-27 11:13:00,
2013-01-27 06:19:00,18.9,17.0,30.55,SE,139,0.0,0.0,92,0.00,,CLR,0.00,VWS V14.01,2013-01-27 11:19:00,
2013-01-27 06:24:00,18.8,16.9,30.55,SE,139,0.0,0.0,92,0.00,,CLR,0.00,VWS V14.01,2013-01-27 11:24:00,
2013-01-27 06:30:00,18.6,16.7,30.55,SE,139,0.0,0.0,92,0.00,,CLR,0.00,VWS V14.01,2013-01-27 11:30:00,
2013-01-27 06:35:00,18.6,16.7,30.55,SE,139,0.0,0.0,92,0.00,,CLR,0.00,VWS V14.01,2013-01-27 11:35:00,
2013-01-27 06:40:00,18.5,16.6,30.55,SE,139,0.0,0.0,92,0.00,,CLR,0.00,VWS V14.01,2013-01-27 11:40:00,
2013-01-27 06:46:00,18.4,16.5,30.56,SE,140,0.0,0.0,92,0.00,,CLR,0.00,VWS V14.01,2013-01-27 11:46:00,
2013-01-27 06:51:00,18.4,16.5,30.56,SE,139,0.0,0.0,92,0.00,,CLR,0.00,VWS V14.01,2013-01-27 11:51:00,
2013-01-27 06:56:00,18.3,16.4,30.56,SE,139,0.0,0.0,92,0.00,,CLR,0.00,VWS V14.01,2013-01-27 11:56:00,
2013-01-27 07:02:00,18.2,16.3,30.57,SE,139,0.0,0.0,92,0.00,,CLR,0.00,VWS V14.01,2013-01-27 12:02:00,
2013-01-27 07:10:00,18.2,16.3,30.57,SE,139,0.0,0.0,92,0.00,,CLR,0.00,VWS V14.01,2013-01-27 12:10:00,
2013-01-27 07:15:00,18.2,16.3,30.57,SE,139,0.0,1.0,92,0.00,,CLR,0.00,VWS V14.01,2013-01-27 12:15:00,
2013-01-27 07:20:00,18.3,16.4,30.57,SE,140,0.0,0.0,92,0.00,,CLR,0.00,VWS V14.01,2013-01-27 12:20:00,
2013-01-27 07:26:00,18.3,16.4,30.57,SE,139,0.0,0.0,92,0.00,,CLR,0.00,VWS V14.01,2013-01-27 12:26:00,
2013-01-27 07:31:00,18.3,16.4,30.58,SE,140,0.0,0.0,92,0.00,,CLR,0.00,VWS V14.01,2013-01-27 12:31:00,
2013-01-27 07:36:00,18.2,16.3,30.58,SE,139,0.0,0.0,92,0.00,,CLR,0.00,VWS V14.01,2013-01-27 12:36:00,
2013-01-27 07:41:00,18.2,16.3,30.59,SE,139,0.0,0.0,92,0.00,,CLR,0.00,VWS V14.01,2013-01-27 12:41:00,
2013-01-27 07:46:00,18.2,16.3,30.59,SE,139,0.0,0.0,92,0.00,,CLR,0.00,VWS V14.01,2013-01-27 12:46:00,
2013-01-27 07:51:00,18.2,16.3,30.59,SE,139,0.0,0.0,92,0.00,,CLR,0.00,VWS V14.01,2013-01-27 12:51:00,
2013-01-27 07:56:00,18.3,16.4,30.59,SE,139,0.0,0.0,92,0.00,,CLR,0.00,VWS V14.01,2013-01-27 12:56:00,
2013-01-27 08:01:00,18.5,16.6,30.60,SE,139,0.0,0.0,92,0.00,,CLR,0.00,VWS V14.01,2013-01-27 13:01:00,
2013-01-27 08:07:00,18.8,16.9,30.60,SE,139,0.0,0.0,92,0.00,,CLR,0.00,VWS V14.01,2013-01-27 13:07:00,
2013-01-27 08:12:00,19.2,17.3,30.60,SE,139,0.0,0.0,92,0.00,,CLR,0.00,VWS V14.01,2013-01-27 13:12:00,
2013-01-27 08:18:00,19.6,17.7,30.60,SE,139,0.0,0.0,92,0.00,,CLR,0.00,VWS V14.01,2013-01-27 13:18:00,
2013-01-27 08:23:00,20.1,18.1,30.61,SE,140,0.0,1.0,92,0.00,,CLR,0.00,VWS V14.01,2013-01-27 13:23:00,
2013-01-27 08:30:00,20.6,18.9,30.61,SE,140,0.0,1.0,93,0.00,,CLR,0.00,VWS V14.01,2013-01-27 13:30:00,
2013-01-27 08:35:00,21.3,19.6,30.61,SE,139,0.0,0.0,93,0.00,,CLR,0.00,VWS V14.01,2013-01-27 13:35:00,
2013-01-27 08:40:00,22.1,20.4,30.61,SE,139,0.0,0.0,93,0.00,,CLR,0.00,VWS V14.01,2013-01-27 13:40:00,
2013-01-27 08:45:00,23.0,21.3,30.61,SE,140,0.0,0.0,93,0.00,,CLR,0.00,VWS V14.01,2013-01-27 13:45:00,
2013-01-27 08:52:00,24.0,22.3,30.61,SE,139,0.0,0.0,93,0.00,,CLR,0.00,VWS V14.01,2013-01-27 13:52:00,
2013-01-27 08:57:00,24.6,22.9,30.61,SE,139,0.0,0.0,93,0.00,,CLR,0.00,VWS V14.01,2013-01-27 13:57:00,
2013-01-27 09:02:00,25.0,23.3,30.61,SE,139,0.0,0.0,93,0.00,,CLR,0.00,VWS V14.01,2013-01-27 14:02:00,
2013-01-27 09:08:00,25.3,23.6,30.61,SE,140,1.0,1.0,93,0.00,,CLR,0.00,VWS V14.01,2013-01-27 14:08:00,
2013-01-27 09:13:00,26.1,24.4,30.61,SW,214,0.0,0.0,93,0.00,,CLR,0.00,VWS V14.01,2013-01-27 14:13:00,
2013-01-27 09:19:00,26.6,24.9,30.61,SW,218,0.0,0.0,93,0.00,,CLR,0.00,VWS V14.01,2013-01-27 14:19:00,
2013-01-27 09:24:00,27.1,25.4,30.62,SW,218,0.0,0.0,93,0.00,,CLR,0.00,VWS V14.01,2013-01-27 14:24:00,
2013-01-27 09:29:00,27.7,25.9,30.62,SW,218,0.0,0.0,93,0.00,,CLR,0.00,VWS V14.01,2013-01-27 14:29:00,
2013-01-27 09:35:00,28.4,26.6,30.62,SW,219,0.0,1.0,93,0.00,,CLR,0.00,VWS V14.01,2013-01-27 14:35:00,
2013-01-27 09:40:00,29.3,27.5,30.63,SW,219,0.0,0.0,93,0.00,,CLR,0.00,VWS V14.01,2013-01-27 14:40:00,
2013-01-27 09:45:00,29.9,28.1,30.63,East,98,0.0,1.0,93,0.00,,CLR,0.00,VWS V14.01,2013-01-27 14:45:00,
2013-01-27 09:51:00,30.4,28.6,30.63,East,99,0.0,0.0,93,0.00,,CLR,0.00,VWS V14.01,2013-01-27 14:51:00,
2013-01-27 09:56:00,30.6,28.8,30.63,NE,55,2.0,2.0,93,0.00,,CLR,0.00,VWS V14.01,2013-01-27 14:56:00,
2013-01-27 10:01:00,30.8,29.0,30.63,NE,41,2.0,3.0,93,0.00,,CLR,0.00,VWS V14.01,2013-01-27 15:01:00,
2013-01-27 10:06:00,30.8,29.0,30.63,SSE,147,3.0,3.0,93,0.00,,CLR,0.00,VWS V14.01,2013-01-27 15:06:00,
2013-01-27 10:12:00,31.3,29.2,30.63,SW,225,1.0,1.0,92,0.00,,CLR,0.00,VWS V14.01,2013-01-27 15:12:00,
2013-01-27 10:17:00,31.7,29.4,30.63,SSW,194,1.0,2.0,91,0.00,,CLR,0.00,VWS V14.01,2013-01-27 15:17:00,
2013-01-27 10:22:00,31.9,29.3,30.63,SSE,155,1.0,1.0,90,0.00,,CLR,0.00,VWS V14.01,2013-01-27 15:22:00,
2013-01-27 10:27:00,32.2,29.3,30.63,SE,141,3.0,3.0,89,0.00,,CLR,0.00,VWS V14.01,2013-01-27 15:27:00,
2013-01-27 10:33:00,32.3,28.9,30.64,South,169,1.0,2.0,87,0.00,,CLR,0.00,VWS V14.01,2013-01-27 15:33:00,
2013-01-27 10:38:00,32.6,28.9,30.64,SE,138,0.0,0.0,86,0.00,,CLR,0.00,VWS V14.01,2013-01-27 15:38:00,
2013-01-27 10:43:00,32.9,28.6,30.64,East,91,1.0,3.0,84,0.00,,CLR,0.00,VWS V14.01,2013-01-27 15:43:00,
2013-01-27 10:48:00,33.0,28.1,30.64,NNW,347,0.0,0.0,82,0.00,,CLR,0.00,VWS V14.01,2013-01-27 15:48:00,
2013-01-27 10:53:00,33.3,28.1,30.64,SSE,162,2.0,2.0,81,0.00,,CLR,0.00,VWS V14.01,2013-01-27 15:53:00,
2013-01-27 10:58:00,33.6,28.1,30.64,South,169,2.0,2.0,80,0.00,,CLR,0.00,VWS V14.01,2013-01-27 15:58:00,
2013-01-27 11:10:00,34.3,28.2,30.63,South,190,2.0,4.0,78,0.01,,CLR,0.01,VWS V14.01,2013-01-27 16:10:00,
2013-01-27 11:20:00,34.5,27.4,30.64,NNW,332,0.0,1.0,75,0.01,,CLR,0.01,VWS V14.01,2013-01-27 16:20:00,
2013-01-27 11:31:00,34.3,26.6,30.64,SSE,148,3.0,4.0,73,0.01,,CLR,0.01,VWS V14.01,2013-01-27 16:31:00,
2013-01-27 11:41:00,34.5,27.1,30.64,SSW,201,3.0,3.0,74,0.01,,CLR,0.01,VWS V14.01,2013-01-27 16:41:00,
2013-01-27 11:51:00,34.6,26.9,30.63,SSE,160,1.0,3.0,73,0.01,,CLR,0.01,VWS V14.01,2013-01-27 16:51:00,
2013-01-27 12:01:00,34.9,26.8,30.63,SSE,159,3.0,8.0,72,0.00,,CLR,0.01,VWS V14.01,2013-01-27 17:01:00,
2013-01-27 12:11:00,35.1,27.0,30.62,SSE,162,0.0,1.0,72,0.00,,CLR,0.01,VWS V14.01,2013-01-27 17:11:00,
2013-01-27 12:21:00,35.5,27.4,30.62,West,265,1.0,1.0,72,0.00,,CLR,0.01,VWS V14.01,2013-01-27 17:21:00,
2013-01-27 12:31:00,35.6,27.5,30.62,ESE,119,0.0,1.0,72,0.00,,CLR,0.01,VWS V14.01,2013-01-27 17:31:00,
2013-01-27 12:41:00,35.6,27.1,30.61,SW,228,1.0,2.0,71,0.00,,CLR,0.01,VWS V14.01,2013-01-27 17:41:00,
2013-01-27 12:51:00,35.6,26.8,30.61,SE,142,2.0,2.0,70,0.00,,CLR,0.01,VWS V14.01,2013-01-27 17:51:00,
2013-01-27 13:01:00,36.0,27.2,30.59,SSE,152,3.0,4.0,70,0.00,,CLR,0.01,VWS V14.01,2013-01-27 18:01:00,
2013-01-27 13:11:00,36.5,27.3,30.60,WSW,238,1.0,1.0,69,0.01,,CLR,0.02,VWS V14.01,2013-01-27 18:11:00,
2013-01-27 13:21:00,37.0,27.8,30.59,SSE,150,2.0,4.0,69,0.01,,CLR,0.02,VWS V14.01,2013-01-27 18:21:00,
2013-01-27 13:31:00,37.3,27.7,30.58,South,188,4.0,4.0,68,0.01,,CLR,0.02,VWS V14.01,2013-01-27 18:31:00,
2013-01-27 13:42:00,37.4,27.8,30.58,SSE,166,1.0,2.0,68,0.01,,CLR,0.02,VWS V14.01,2013-01-27 18:42:00,
2013-01-27 13:52:00,37.9,27.9,30.58,SE,138,3.0,3.0,67,0.01,,CLR,0.02,VWS V14.01,2013-01-27 18:52:00,
2013-01-27 14:02:00,37.7,27.4,30.58,SSE,153,2.0,3.0,66,0.01,,CLR,0.02,VWS V14.01,2013-01-27 19:02:00,
2013-01-27 14:12:00,38.1,27.8,30.58,NE,55,1.0,2.0,66,0.00,,CLR,0.02,VWS V14.01,2013-01-27 19:12:00,
2013-01-27 14:22:00,38.5,28.1,30.57,West,278,3.0,3.0,66,0.00,,CLR,0.02,VWS V14.01,2013-01-27 19:22:00,
2013-01-27 14:32:00,38.7,28.0,30.56,NNW,338,0.0,1.0,65,0.00,,CLR,0.02,VWS V14.01,2013-01-27 19:32:00,
2013-01-27 14:42:00,39.9,29.1,30.56,NNE,28,2.0,2.0,65,0.00,,CLR,0.02,VWS V14.01,2013-01-27 19:42:00,
2013-01-27 14:52:00,40.1,29.7,30.56,NNE,15,1.0,2.0,66,0.00,,CLR,0.02,VWS V14.01,2013-01-27 19:52:00,
2013-01-27 15:02:00,40.2,29.0,30.56,SW,228,1.0,1.0,64,0.00,,CLR,0.02,VWS V14.01,2013-01-27 20:02:00,
2013-01-27 15:12:00,40.1,28.5,30.56,ENE,58,2.0,2.0,63,0.00,,CLR,0.02,VWS V14.01,2013-01-27 20:12:00,
2013-01-27 15:22:00,40.1,28.1,30.56,NE,43,0.0,1.0,62,0.00,,CLR,0.02,VWS V14.01,2013-01-27 20:22:00,
2013-01-27 15:32:00,40.5,28.9,30.56,SE,138,2.0,2.0,63,0.00,,CLR,0.02,VWS V14.01,2013-01-27 20:32:00,
2013-01-27 15:42:00,40.0,28.0,30.56,SE,131,1.0,2.0,62,0.00,,CLR,0.02,VWS V14.01,2013-01-27 20:42:00,
2013-01-27 15:52:00,39.6,28.1,30.56,SSE,150,0.0,0.0,63,0.00,,CLR,0.02,VWS V14.01,2013-01-27 20:52:00,
2013-01-27 16:02:00,39.6,28.8,30.56,SE,129,1.0,1.0,65,0.00,,CLR,0.02,VWS V14.01,2013-01-27 21:02:00,
2013-01-27 16:12:00,39.1,28.0,30.56,SE,129,0.0,1.0,64,0.00,,CLR,0.02,VWS V14.01,2013-01-27 21:12:00,
2013-01-27 16:22:00,39.3,28.5,30.56,SE,142,1.0,1.0,65,0.00,,CLR,0.02,VWS V14.01,2013-01-27 21:22:00,
2013-01-27 16:33:00,39.1,28.3,30.56,SSE,162,0.0,0.0,65,0.00,,CLR,0.02,VWS V14.01,2013-01-27 21:33:00,
2013-01-27 16:43:00,38.9,28.1,30.56,SSE,153,0.0,0.0,65,0.00,,CLR,0.02,VWS V14.01,2013-01-27 21:43:00,
2013-01-27 16:53:00,38.9,28.5,30.56,SSE,152,1.0,1.0,66,0.00,,CLR,0.02,VWS V14.01,2013-01-27 21:53:00,
2013-01-27 17:03:00,38.8,28.1,30.57,SSE,152,0.0,0.0,65,0.00,,CLR,0.02,VWS V14.01,2013-01-27 22:03:00,
2013-01-27 17:13:00,38.6,28.2,30.57,SSE,152,0.0,0.0,66,0.00,,CLR,0.02,VWS V14.01,2013-01-27 22:13:00,
2013-01-27 17:23:00,38.3,28.0,30.57,SSE,152,0.0,0.0,66,0.00,,CLR,0.02,VWS V14.01,2013-01-27 22:23:00,
2013-01-27 17:33:00,38.0,28.0,30.57,SSE,152,0.0,0.0,67,0.00,,CLR,0.02,VWS V14.01,2013-01-27 22:33:00,
2013-01-27 17:43:00,37.5,27.9,30.57,SSE,152,0.0,0.0,68,0.00,,CLR,0.02,VWS V14.01,2013-01-27 22:43:00,
2013-01-27 17:53:00,37.1,27.9,30.58,SSE,153,0.0,0.0,69,0.00,,CLR,0.02,VWS V14.01,2013-01-27 22:53:00,
2013-01-27 18:03:00,36.8,28.3,30.58,SSE,152,0.0,0.0,71,0.00,,CLR,0.02,VWS V14.01,2013-01-27 23:03:00,
2013-01-27 18:11:00,36.4,27.9,30.57,SSE,152,0.0,0.0,71,0.00,,CLR,0.02,VWS V14.01,2013-01-27 23:11:00,
2013-01-27 18:16:00,36.3,27.8,30.57,SSE,152,0.0,0.0,71,0.00,,CLR,0.02,VWS V14.01,2013-01-27 23:16:00,
2013-01-27 18:21:00,36.1,28.0,30.57,SSE,152,0.0,0.0,72,0.00,,CLR,0.02,VWS V14.01,2013-01-27 23:21:00,
2013-01-27 18:26:00,36.0,27.9,30.58,SSE,152,0.0,0.0,72,0.00,,CLR,0.02,VWS V14.01,2013-01-27 23:26:00,
2013-01-27 18:31:00,35.9,29.1,30.58,SSE,152,0.0,0.0,76,0.00,,CLR,0.02,VWS V14.01,2013-01-27 23:31:00,
2013-01-27 18:36:00,35.8,29.0,30.58,SSE,152,0.0,0.0,76,0.00,,CLR,0.02,VWS V14.01,2013-01-27 23:36:00,
2013-01-27 18:41:00,35.7,28.9,30.58,SSE,152,0.0,0.0,76,0.00,,CLR,0.02,VWS V14.01,2013-01-27 23:41:00,
2013-01-27 18:46:00,35.7,29.5,30.57,SSE,152,0.0,0.0,78,0.00,,CLR,0.02,VWS V14.01,2013-01-27 23:46:00,
2013-01-27 18:51:00,35.6,29.1,30.58,SSE,152,0.0,0.0,77,0.00,,CLR,0.02,VWS V14.01,2013-01-27 23:51:00,
2013-01-27 18:57:00,35.6,29.1,30.58,SSE,152,0.0,0.0,77,0.00,,CLR,0.02,VWS V14.01,2013-01-27 23:57:00,
2013-01-27 19:02:00,35.5,29.3,30.58,SSE,152,0.0,0.0,78,0.00,,CLR,0.02,VWS V14.01,2013-01-28 00:02:00,
2013-01-27 19:07:00,35.5,29.0,30.57,ESE,120,0.0,0.0,77,0.00,,CLR,0.02,VWS V14.01,2013-01-28 00:07:00,
2013-01-27 19:12:00,35.5,29.3,30.57,ESE,120,0.0,0.0,78,0.00,,CLR,0.02,VWS V14.01,2013-01-28 00:12:00,
2013-01-27 19:18:00,35.3,29.8,30.58,ESE,120,0.0,0.0,80,0.00,,CLR,0.02,VWS V14.01,2013-01-28 00:18:00,
2013-01-27 19:25:00,35.1,29.6,30.58,ESE,120,0.0,0.0,80,0.00,,CLR,0.02,VWS V14.01,2013-01-28 00:25:00,
2013-01-27 19:30:00,35.2,29.7,30.58,ESE,120,0.0,0.0,80,0.00,,CLR,0.02,VWS V14.01,2013-01-28 00:30:00,
2013-01-27 19:35:00,35.2,29.7,30.58,ESE,120,0.0,0.0,80,0.00,,CLR,0.02,VWS V14.01,2013-01-28 00:35:00,
2013-01-27 19:40:00,35.1,29.6,30.58,ESE,120,0.0,0.0,80,0.00,,CLR,0.02,VWS V14.01,2013-01-28 00:40:00,
2013-01-27 19:46:00,34.9,29.4,30.58,ESE,120,0.0,0.0,80,0.00,,CLR,0.02,VWS V14.01,2013-01-28 00:46:00,
2013-01-27 19:51:00,34.8,29.6,30.58,ESE,120,0.0,0.0,81,0.00,,CLR,0.02,VWS V14.01,2013-01-28 00:51:00,
2013-01-27 19:56:00,34.7,29.5,30.58,ESE,120,0.0,0.0,81,0.00,,CLR,0.02,VWS V14.01,2013-01-28 00:56:00,
2013-01-27 20:01:00,34.7,29.8,30.58,ESE,120,0.0,0.0,82,0.00,,CLR,0.02,VWS V14.01,2013-01-28 01:01:00,
2013-01-27 20:11:00,34.7,29.8,30.57,ESE,120,0.0,1.0,82,0.00,,CLR,0.02,VWS V14.01,2013-01-28 01:11:00,
2013-01-27 20:16:00,34.7,30.1,30.58,SE,125,0.0,0.0,83,0.00,,CLR,0.02,VWS V14.01,2013-01-28 01:16:00,
2013-01-27 20:22:00,34.7,30.1,30.58,SE,125,0.0,1.0,83,0.00,,CLR,0.02,VWS V14.01,2013-01-28 01:22:00,
2013-01-27 20:27:00,34.6,30.0,30.58,SE,125,0.0,0.0,83,0.00,,CLR,0.02,VWS V14.01,2013-01-28 01:27:00,
2013-01-27 20:32:00,34.7,30.1,30.58,SE,125,0.0,0.0,83,0.00,,CLR,0.02,VWS V14.01,2013-01-28 01:32:00,
2013-01-27 20:38:00,34.7,30.1,30.58,SE,126,0.0,0.0,83,0.00,,CLR,0.02,VWS V14.01,2013-01-28 01:38:00,
2013-01-27 20:43:00,34.7,30.1,30.58,SE,125,0.0,0.0,83,0.00,,CLR,0.02,VWS V14.01,2013-01-28 01:43:00,
2013-01-27 20:48:00,34.7,30.1,30.58,SE,125,0.0,0.0,83,0.00,,CLR,0.02,VWS V14.01,2013-01-28 01:48:00,
2013-01-27 20:54:00,34.7,30.1,30.58,SE,125,0.0,0.0,83,0.00,,CLR,0.02,VWS V14.01,2013-01-28 01:54:00,
2013-01-27 20:59:00,34.7,30.4,30.58,SE,126,0.0,0.0,84,0.00,,CLR,0.02,VWS V14.01,2013-01-28 01:59:00,
2013-01-27 21:05:00,34.7,30.4,30.58,SE,125,0.0,0.0,84,0.00,,CLR,0.02,VWS V14.01,2013-01-28 02:05:00,
2013-01-27 21:10:00,34.6,30.3,30.58,SE,125,0.0,0.0,84,0.00,,CLR,0.02,VWS V14.01,2013-01-28 02:10:00,
2013-01-27 21:16:00,34.5,30.2,30.58,SE,125,0.0,0.0,84,0.00,,CLR,0.02,VWS V14.01,2013-01-28 02:16:00,
2013-01-27 21:21:00,34.7,30.4,30.58,SE,125,0.0,0.0,84,0.00,,CLR,0.02,VWS V14.01,2013-01-28 02:21:00,
2013-01-27 21:26:00,34.8,30.5,30.57,SE,125,0.0,0.0,84,0.00,,CLR,0.02,VWS V14.01,2013-01-28 02:26:00,
2013-01-27 21:32:00,34.7,30.1,30.56,SE,125,0.0,0.0,83,0.00,,CLR,0.02,VWS V14.01,2013-01-28 02:32:00,
2013-01-27 21:52:00,34.5,30.2,30.56,SE,125,0.0,0.0,84,0.00,,CLR,0.02,VWS V14.01,2013-01-28 02:52:00,
2013-01-27 21:58:00,34.4,30.1,30.56,SE,125,0.0,0.0,84,0.00,,CLR,0.02,VWS V14.01,2013-01-28 02:58:00,
2013-01-27 22:09:00,34.3,30.3,30.56,SE,126,0.0,0.0,85,0.00,,CLR,0.02,VWS V14.01,2013-01-28 03:09:00,
2013-01-27 22:14:00,34.2,30.2,30.55,SE,125,0.0,0.0,85,0.00,,CLR,0.02,VWS V14.01,2013-01-28 03:14:00,
2013-01-27 22:20:00,34.2,30.2,30.55,SE,125,0.0,0.0,85,0.00,,CLR,0.02,VWS V14.01,2013-01-28 03:20:00,
2013-01-27 22:28:00,34.3,30.3,30.55,SE,125,0.0,0.0,85,0.00,,CLR,0.02,VWS V14.01,2013-01-28 03:28:00,
2013-01-27 22:34:00,34.3,30.6,30.55,SE,125,0.0,0.0,86,0.00,,CLR,0.02,VWS V14.01,2013-01-28 03:34:00,
2013-01-27 22:39:00,34.1,30.4,30.55,SE,125,0.0,0.0,86,0.00,,CLR,0.02,VWS V14.01,2013-01-28 03:39:00,
2013-01-27 22:44:00,34.0,30.3,30.54,SE,125,0.0,0.0,86,0.00,,CLR,0.02,VWS V14.01,2013-01-28 03:44:00,
2013-01-27 22:51:00,34.0,30.3,30.55,SE,126,0.0,0.0,86,0.00,,CLR,0.02,VWS V14.01,2013-01-28 03:51:00,
2013-01-27 22:57:00,33.9,30.2,30.55,SE,125,0.0,0.0,86,0.00,,CLR,0.02,VWS V14.01,2013-01-28 03:57:00,
2013-01-27 23:04:00,33.9,30.2,30.55,SE,125,0.0,0.0,86,0.00,,CLR,0.02,VWS V14.01,2013-01-28 04:04:00,
2013-01-27 23:10:00,34.0,30.5,30.55,SE,125,0.0,0.0,87,0.00,,CLR,0.02,VWS V14.01,2013-01-28 04:10:00,
2013-01-27 23:17:00,34.1,30.6,30.55,SE,126,0.0,0.0,87,0.00,,CLR,0.02,VWS V14.01,2013-01-28 04:17:00,
2013-01-27 23:26:00,34.1,30.9,30.54,SE,125,0.0,0.0,88,0.00,,CLR,0.02,VWS V14.01,2013-01-28 04:26:00,
2013-01-27 23:32:00,34.1,30.9,30.55,SE,125,0.0,0.0,88,0.00,,CLR,0.02,VWS V14.01,2013-01-28 04:32:00,
2013-01-27 23:38:00,34.0,30.8,30.54,SE,125,0.0,0.0,88,0.00,,CLR,0.02,VWS V14.01,2013-01-28 04:38:00,
2013-01-27 23:44:00,33.9,31.0,30.54,SE,125,0.0,0.0,89,0.00,,CLR,0.02,VWS V14.01,2013-01-28 04:44:00,
2013-01-27 23:49:00,33.9,31.0,30.54,SE,125,0.0,0.0,89,0.00,,CLR,0.02,VWS V14.01,2013-01-28 04:49:00,
2013-01-27 23:55:00,33.9,31.0,30.54,SE,125,0.0,0.0,89,0.00,,CLR,0.02,VWS V14.01,2013-01-28 04:55:00,